Tracking 27122 objects as of 25-Mar-2023
HD Live streaming from Space Station
objects crossing your sky now

MICROMAS 2A

Track MICROMAS 2A now!
10-day predictions
MICROMAS 2A is classified as:


NORAD ID: 43131
Int'l Code: 2018-004W
Perigee: 314.9 km
Apogee: 322.3 km
Inclination: 97.3 °
Period: 90.8 minutes
Semi major axis: 6689 km
RCS: Unknown
Launch date: January 12, 2018
Source: United States (US)
Launch site: SRIHARIKOTA (SRI)

MICROMAS 2A is a 3U cubesat from MIT Lincoln Lab, designed for microwave radiometry of tropical weather.
Your satellite tracking list
Your tracking list is empty




NASA's NSSDC Master Catalog

Two Line Element Set (TLE):
1 43131U 18004W   23083.48274778  .01059376  00000-0  37155-2 0  9992
2 43131  97.3310 172.7922 0005540 278.3120  81.7523 15.86724568289898
Source of the keplerian elements: AFSPC